When you browse on this site, cookies collect data to enhance your experience and personalize the content and advertising you see.
Visit our Privacy Policy to learn more. By continuing to use the site, you agree to this use of cookies and data.
  • In Sweden
  • List of Countries
  • For 7 days
  • Water Temperature
  • Satellite Maps
  • Weather Map
  • Weather Widgets
  • user-avatar
    Login

    Hourly Weather Klagenfurt

    Today, 21 March, Thursday

    Time Temperature Precipitation Wind Pressure Humidity
    00:00 -1°C° 0 mm 1 mps 700 mmHg 77%
    01:00 -2°C° 0 mm 1 mps 700 mmHg 81%
    02:00 -2°C° 0 mm 1 mps 699 mmHg 81%
    03:00 -2°C° 0 mm 1 mps 699 mmHg 81%
    04:00 -2°C° 0 mm 1 mps 699 mmHg 81%
    05:00 -1°C° 0 mm 1 mps 699 mmHg 79%
    06:00 -1°C° 0 mm 1 mps 699 mmHg 76%
    07:00 0°C° 0 mm 1 mps 700 mmHg 74%
    08:00 +2°C° 0 mm 1 mps 700 mmHg 65%
    09:00 +5°C° 0 mm 1 mps 700 mmHg 56%
    10:00 +7°C° 0 mm 1 mps 700 mmHg 47%
    11:00 +9°C° 0 mm 1 mps 700 mmHg 44%
    12:00 +10°C° 0 mm 1 mps 700 mmHg 41%
    13:00 +11°C° 0 mm 1 mps 700 mmHg 38%
    14:00 +11°C° 0 mm 1 mps 700 mmHg 39%
    15:00 +11°C° 0 mm 1 mps 699 mmHg 40%
    16:00 +11°C° 0 mm 1 mps 699 mmHg 42%
    17:00 +8°C° 0 mm 1 mps 699 mmHg 51%
    18:00 +6°C° 0 mm 1 mps 699 mmHg 59%
    19:00 +3°C° 0 mm 1 mps 698 mmHg 68%
    20:00 +3°C° 0 mm 1 mps 699 mmHg 69%
    21:00 +2°C° 0 mm 1 mps 699 mmHg 71%
    22:00 +2°C° 0 mm 1 mps 699 mmHg 73%
    23:00 +2°C° 0 mm 1 mps 699 mmHg 73%

    Tomorrow, 22 March, Friday

    Time Temperature Precipitation Wind Pressure Humidity
    00:00 +1°C° 0 mm 1 mps 699 mmHg 73%
    01:00 +1°C° 0 mm 1 mps 699 mmHg 73%
    02:00 +1°C° 0 mm 1 mps 699 mmHg 72%
    03:00 +1°C° 0 mm 1 mps 698 mmHg 71%
    04:00 +1°C° 0 mm 1 mps 698 mmHg 70%
    05:00 +1°C° 0 mm 1 mps 698 mmHg 67%
    06:00 +2°C° 0 mm 1 mps 698 mmHg 65%
    07:00 +2°C° 0 mm 1 mps 699 mmHg 63%
    08:00 +5°C° 0 mm 1 mps 699 mmHg 55%
    09:00 +8°C° 0 mm 1 mps 699 mmHg 48%
    10:00 +11°C° 0 mm 1 mps 699 mmHg 40%
    11:00 +12°C° 0 mm 1 mps 699 mmHg 39%
    12:00 +13°C° 0 mm 1 mps 699 mmHg 37%
    13:00 +14°C° 0 mm 1 mps 699 mmHg 36%
    14:00 +14°C° 0 mm 1 mps 699 mmHg 38%
    15:00 +14°C° 0 mm 1 mps 698 mmHg 41%
    16:00 +13°C° 0 mm 1 mps 698 mmHg 44%
    17:00 +11°C° 0 mm 1 mps 697 mmHg 52%
    18:00 +8°C° 0 mm 1 mps 697 mmHg 60%
    19:00 +5°C° 0 mm 0 mps 697 mmHg 69%
    20:00 +4°C° 0 mm 0 mps 697 mmHg 70%
    21:00 +4°C° 0 mm 0 mps 697 mmHg 71%
    22:00 +3°C° 0 mm 0 mps 697 mmHg 72%
    23:00 +3°C° 0 mm 0 mps 697 mmHg 73%

    Day after tomorrow, 23 March, Saturday

    Time Temperature Precipitation Wind Pressure Humidity
    00:00 +3°C° 0 mm 0 mps 697 mmHg 73%
    01:00 +3°C° 0 mm 0 mps 696 mmHg 74%
    02:00 +3°C° 0 mm 1 mps 696 mmHg 74%
    03:00 +3°C° 0 mm 1 mps 696 mmHg 74%
    04:00 +3°C° 0 mm 1 mps 696 mmHg 75%
    05:00 +3°C° 0 mm 1 mps 696 mmHg 74%
    06:00 +4°C° 0 mm 1 mps 696 mmHg 73%
    07:00 +4°C° 0 mm 1 mps 696 mmHg 72%
    08:00 +7°C° 0 mm 1 mps 696 mmHg 65%
    09:00 +10°C° 0 mm 1 mps 697 mmHg 57%
    10:00 +13°C° 0 mm 1 mps 697 mmHg 50%
    11:00 +14°C° 0 mm 1 mps 697 mmHg 47%
    12:00 +15°C° 0 mm 1 mps 697 mmHg 45%
    13:00 +16°C° 0 mm 1 mps 697 mmHg 43%
    14:00 +16°C° 0 mm 1 mps 696 mmHg 44%
    15:00 +16°C° 0 mm 1 mps 696 mmHg 46%
    16:00 +15°C° 0 mm 1 mps 696 mmHg 47%
    17:00 +13°C° 0 mm 1 mps 695 mmHg 56%
    18:00 +11°C° 0 mm 1 mps 695 mmHg 65%
    19:00 +7°C° 0 mm 0 mps 695 mmHg 74%
    20:00 +7°C° 0 mm 0 mps 695 mmHg 75%
    21:00 +6°C° 0 mm 0 mps 695 mmHg 77%
    22:00 +6°C° 0 mm 0 mps 695 mmHg 78%
    23:00 +5°C° 0 mm 0 mps 695 mmHg 79%

    24 March, Sunday

    Time Temperature Precipitation Wind Pressure Humidity
    00:00 +5°C° 0 mm 0 mps 695 mmHg 80%
    01:00 +5°C° 0 mm 0 mps 695 mmHg 81%
    02:00 +5°C° 0 mm 1 mps 695 mmHg 81%
    03:00 +5°C° 0 mm 1 mps 694 mmHg 82%
    04:00 +5°C° 0 mm 1 mps 694 mmHg 83%
    05:00 +5°C° 0 mm 1 mps 694 mmHg 82%
    06:00 +6°C° 0 mm 1 mps 694 mmHg 81%
    07:00 +5°C° 0 mm 0 mps 694 mmHg 80%
    08:00 +8°C° 0 mm 0 mps 695 mmHg 71%
    09:00 +11°C° 0 mm 0 mps 695 mmHg 62%
    10:00 +15°C° 0 mm 1 mps 695 mmHg 53%
    11:00 +16°C° 0 mm 1 mps 695 mmHg 50%
    12:00 +18°C° 0 mm 1 mps 695 mmHg 46%
    13:00 +19°C° 0 mm 1 mps 695 mmHg 42%
    14:00 +18°C° 0 mm 1 mps 694 mmHg 43%
    15:00 +18°C° 0 mm 1 mps 693 mmHg 44%
    16:00 +18°C° 0 mm 1 mps 693 mmHg 44%
    17:00 +15°C° 0 mm 1 mps 692 mmHg 53%
    18:00 +12°C° 0 mm 1 mps 692 mmHg 61%
    19:00 +10°C° 0 mm 1 mps 692 mmHg 70%
    20:00 +10°C° 0 mm 1 mps 692 mmHg 73%
    21:00 +9°C° 0 mm 1 mps 692 mmHg 76%
    22:00 +8°C° 0 mm 1 mps 692 mmHg 79%
    23:00 +8°C° 0 mm 1 mps 691 mmHg 80%

    25 March, Monday

    Time Temperature Precipitation Wind Pressure Humidity
    00:00 +8°C° 0 mm 1 mps 691 mmHg 82%
    01:00 +7°C° 0 mm 1 mps 691 mmHg 83%
    02:00 +7°C° 0 mm 1 mps 691 mmHg 84%
    03:00 +7°C° 0 mm 1 mps 691 mmHg 84%
    04:00 +7°C° 0 mm 1 mps 691 mmHg 85%
    05:00 +7°C° 0.2 mm 1 mps 691 mmHg 85%
    06:00 +8°C° 0.2 mm 1 mps 691 mmHg 84%
    07:00 +8°C° 0.2 mm 1 mps 691 mmHg 84%
    08:00 +9°C° 0.5 mm 1 mps 691 mmHg 82%
    09:00 +10°C° 0.5 mm 1 mps 691 mmHg 79%
    10:00 +9°C° 0.5 mm 0 mps 691 mmHg 77%
    11:00 +10°C° 0.2 mm 0 mps 691 mmHg 71%
    12:00 +11°C° 0.2 mm 0 mps 691 mmHg 66%
    13:00 +14°C° 0.2 mm 1 mps 691 mmHg 60%
    14:00 +13°C° 0.2 mm 1 mps 691 mmHg 60%
    15:00 +13°C° 0.2 mm 1 mps 691 mmHg 60%
    16:00 +13°C° 0.2 mm 1 mps 691 mmHg 59%
    17:00 +12°C° 0.7 mm 1 mps 690 mmHg 66%
    18:00 +10°C° 0.7 mm 1 mps 690 mmHg 72%
    19:00 +9°C° 0.7 mm 1 mps 690 mmHg 78%
    20:00 +8°C° 0.3 mm 1 mps 690 mmHg 79%
    21:00 +8°C° 0.3 mm 1 mps 691 mmHg 81%
    22:00 +7°C° 0.3 mm 1 mps 691 mmHg 82%
    23:00 +6°C° 0 mm 1 mps 691 mmHg 83%

    26 March, Tuesday

    Time Temperature Precipitation Wind Pressure Humidity
    00:00 +5°C° 0 mm 1 mps 691 mmHg 83%
    01:00 +5°C° 0 mm 1 mps 690 mmHg 84%
    02:00 +4°C° 0 mm 1 mps 690 mmHg 84%
    03:00 +4°C° 0 mm 1 mps 690 mmHg 84%
    04:00 +4°C° 0 mm 1 mps 690 mmHg 83%
    05:00 +4°C° 0 mm 1 mps 690 mmHg 82%
    06:00 +4°C° 0 mm 1 mps 690 mmHg 81%
    07:00 +3°C° 0 mm 1 mps 690 mmHg 79%
    08:00 +5°C° 0 mm 1 mps 691 mmHg 68%
    09:00 +5°C° 0 mm 2 mps 691 mmHg 57%
    10:00 +7°C° 0 mm 2 mps 692 mmHg 46%
    11:00 +7°C° 0 mm 3 mps 692 mmHg 42%
    12:00 +6°C° 0 mm 4 mps 692 mmHg 38%
    13:00 +6°C° 0 mm 5 mps 692 mmHg 34%
    14:00 +4°C° 0 mm 6 mps 692 mmHg 32%
    15:00 +4°C° 0 mm 6 mps 692 mmHg 31%
    16:00 +3°C° 0 mm 7 mps 693 mmHg 29%
    17:00 +2°C° 0 mm 5 mps 693 mmHg 35%
    18:00 0°C° 0 mm 4 mps 693 mmHg 41%
    19:00 -1°C° 0 mm 2 mps 693 mmHg 47%
    20:00 -1°C° 0 mm 2 mps 694 mmHg 49%
    21:00 -2°C° 0 mm 2 mps 694 mmHg 51%
    22:00 -2°C° 0 mm 2 mps 695 mmHg 53%
    23:00 -2°C° 0 mm 2 mps 695 mmHg 53%
    Show more